GW0092 Weather Reports


time (UTC)temp
C
wind
direction
speed
KPH
gust
KPH
rain 1hr
cm
rain 24hr
cm
rain mn
cm
humidity
%
barometer
mb
20260906033108 18 0 0.0 0.0 0.00 0.00 0.00 97 1012.4
20260906031602 18 0 0.0 0.0 0.00 0.00 0.00 97 1012.5
20260906030134 18 0 0.0 0.0 0.00 0.00 0.00 96 1012.4
20260906024557 18 0 0.0 0.0 0.00 0.00 0.00 96 1012.4
20260906023124 18 0 0.0 0.0 0.00 0.00 0.00 96 1012.4
20260906021612 18 0 0.0 0.0 0.00 0.00 0.00 95 1012.3
20260906020107 19 0 0.0 0.0 0.00 0.00 0.00 95 1012.4
20260906014623 19 0 0.0 0.0 0.00 0.00 0.00 95 1012.2
20260906013101 20 0 0.0 0.0 0.00 0.00 0.00 95 1011.9
20260906011606 20 0 0.0 0.0 0.00 0.00 0.00 94 1011.8
20260906010058 20 0 0.0 0.0 0.00 0.00 0.00 94 1011.6
20260906004556 20 0 0.0 0.0 0.00 0.00 0.00 93 1011.5
20260906003109 20 0 0.0 0.0 0.00 0.00 0.00 92 1011.6
20260906001603 21 0 0.0 0.0 0.00 0.00 0.00 90 1011.5
20260906000059 21 0 0.0 0.0 0.00 0.00 0.00 88 1011.2
20260905234618 22 0 0.0 0.0 0.00 0.00 0.00 87 1011.0
20260905233103 22 0 0.0 0.0 0.00 0.00 0.00 84 1011.0
20260905231602 23 0 0.0 0.0 0.00 0.00 0.00 82 1011.1
20260905230100 24 298 0.0 1.6 0.00 0.00 0.00 77 1011.1
20260905224610 25 354 1.6 4.8 0.00 0.00 0.00 74 1010.9
20260905223102 25 295 1.6 6.4 0.00 0.00 0.00 75 1010.8
20260905221603 25 338 1.6 4.8 0.00 0.00 0.00 75 1010.7
20260905220056 25 351 1.6 4.8 0.00 0.00 0.00 74 1010.6
20260905214611 25 311 0.0 8.0 0.00 0.00 0.00 76 1010.4
20260905213111 26 340 4.8 9.7 0.00 0.00 0.00 74 1010.3
20260905211603 27 330 4.8 9.7 0.00 0.00 0.00 71 1010.1
20260905210101 27 295 0.0 3.2 0.00 0.00 0.00 75 1009.9
20260905204559 27 220 3.2 6.4 0.00 0.00 0.00 75 1009.6
20260905203105 27 0 0.0 4.8 0.00 0.00 0.00 76 1009.4
20260905201607 28 25 1.6 4.8 0.00 0.00 0.00 73 1009.4
20260905194603 26 5 0.0 1.6 0.00 0.00 0.00 79 1010.0
20260905193101 27 0 0.0 4.8 0.00 0.00 0.00 76 1010.4
20260905191613 27 0 0.0 6.4 0.00 0.00 0.00 71 1010.6
20260905184610 27 290 3.2 8.0 0.00 0.00 0.00 76 1011.0
20260905183103 26 344 4.8 8.0 0.00 0.00 0.00 71 1011.0
20260905181606 27 303 3.2 11.3 0.00 0.00 0.00 73 1011.0
20260905174617 27 300 0.0 11.3 0.00 0.00 0.00 69 1011.1
20260905173112 27 322 6.4 16.1 0.00 0.00 0.00 69 1011.1
20260905171602 27 327 6.4 11.3 0.00 0.00 0.00 70 1010.9
20260905170059 27 314 0.0 8.0 0.00 0.00 0.00 72 1011.0
20260905164605 27 303 3.2 11.3 0.00 0.00 0.00 74 1011.1
20260905163107 27 337 3.2 11.3 0.00 0.00 0.00 71 1011.2
20260905161600 27 10 4.8 11.3 0.00 0.00 0.00 71 1011.4
20260905160110 27 322 3.2 8.0 0.00 0.00 0.00 67 1011.6
20260905154605 27 347 1.6 9.7 0.00 0.00 0.00 71 1011.8
20260905153102 27 31 1.6 11.3 0.00 0.00 0.00 66 1011.8
20260905151558 26 340 6.4 12.9 0.00 0.00 0.00 69 1011.7
20260905150105 26 309 3.2 11.3 0.00 0.00 0.00 68 1011.8
20260905144601 26 293 6.4 12.9 0.00 0.00 0.00 70 1011.8
20260905143100 26 314 3.2 8.0 0.00 0.00 0.00 76 1011.6
20260905141612 26 327 1.6 11.3 0.00 0.00 0.00 78 1011.5
20260905140107 25 300 3.2 12.9 0.00 0.00 0.00 78 1011.4
20260905134610 25 256 1.6 9.7 0.00 0.00 0.00 82 1011.2
20260905133100 25 331 3.2 9.7 0.00 0.00 0.00 89 1011.0
20260905131559 24 300 1.6 8.0 0.00 0.00 0.00 95 1010.8
20260905130113 24 1 1.6 8.0 0.00 0.00 0.00 96 1011.0
20260905124601 23 295 3.2 9.7 0.00 0.00 0.00 97 1010.9
20260905123109 23 324 3.2 6.4 0.00 0.00 0.00 98 1011.0
20260905121602 23 340 1.6 4.8 0.00 0.00 0.00 99 1010.8
20260905120112 23 0 0.0 0.0 0.00 0.00 0.00 99 1010.7
20260905114637 22 0 0.0 0.0 0.00 0.00 0.00 100 1010.7
20260905113102 22 0 0.0 0.0 0.00 0.00 0.00 100 1010.6
20260905111601 22 0 0.0 0.0 0.00 0.00 0.00 100 1010.7
20260905110059 22 310 0.0 1.6 0.00 0.00 0.00 100 1010.3
20260905104605 22 0 0.0 1.6 0.00 0.03 0.00 99 1009.9
20260905103101 22 333 0.0 4.8 0.00 0.03 0.00 99 1009.8
20260905101600 22 0 0.0 1.6 0.00 0.03 0.00 99 1009.7
20260905100113 22 0 0.0 0.0 0.00 0.03 0.00 99 1009.6
20260905094624 22 0 0.0 0.0 0.00 0.03 0.00 99 1009.6
20260905093102 22 0 0.0 0.0 0.00 0.03 0.00 99 1009.6
20260905091615 22 0 0.0 1.6 0.00 0.03 0.00 99 1009.6
20260905090057 22 0 0.0 0.0 0.00 0.03 0.00 98 1009.8
20260905084603 22 0 0.0 1.6 0.00 0.08 0.00 98 1009.9
20260905083102 22 0 0.0 1.6 0.00 0.08 0.00 98 1009.8
20260905081558 22 342 0.0 3.2 0.00 0.08 0.00 98 1009.8
20260905080101 22 333 0.0 3.2 0.00 0.08 0.00 98 1010.0
20260905074605 23 353 0.0 4.8 0.00 0.30 0.00 97 1009.9
20260905073105 23 28 1.6 6.4 0.00 0.30 0.00 97 1009.9
20260905071602 23 283 0.0 3.2 0.00 0.30 0.00 97 1010.1
20260905070104 23 328 0.0 1.6 0.00 0.30 0.00 97 1010.3
20260905064616 23 0 0.0 3.2 0.00 0.99 0.00 97 1010.2
20260905063059 23 0 0.0 4.8 0.00 0.99 0.00 97 1010.4
20260905061619 23 307 0.0 3.2 0.00 0.99 0.00 97 1010.5
20260905060104 23 0 0.0 0.0 0.00 0.99 0.00 96 1010.2
20260905054604 23 0 0.0 1.6 0.00 0.99 0.00 96 1010.3
20260905053102 24 335 0.0 3.2 0.00 0.99 0.00 95 1010.7
20260905051611 24 0 0.0 3.2 0.00 0.99 0.00 95 1010.9
20260905050107 24 319 1.6 4.8 0.00 0.99 0.00 95 1011.2
20260905044603 24 322 1.6 4.8 0.00 0.99 0.00 95 1011.1
20260905043055 25 352 1.6 6.4 0.00 0.99 0.00 96 1011.1
20260905041604 24 0 0.0 0.0 0.00 0.99 0.00 96 1011.4
20260905040103 24 0 0.0 0.0 0.00 0.99 0.00 97 1011.5
20260905034609 24 0 0.0 0.0 0.00 0.99 0.99 97 1011.6